Morganton, NC

11:47 PM EDT on April 23, 2017 (GMT -0400)
Morganton-Lenoir

Weather History for KMRN - November, 2013

Change the Weather History Date:

Saturday, November 30, 2013

  Actual Average (KHKY) Record (KHKY)
Temperature  
Mean Temperature 35 °F -  
Max Temperature 45 °F 52 °F 71 °F (1970)
Min Temperature 25 °F 33 °F 14 °F (1976)
Degree Days  
Heating Degree Days 30    
Moisture  
Dew Point 23 °F    
Average Humidity 69    
Maximum Humidity 94    
Minimum Humidity 38    
Precipitation  
Precipitation 0.00 in - - ()
Sea Level Pressure  
Sea Level Pressure 30.56 in    
Wind  
Wind Speed 4 mph (North)    
Max Wind Speed 7 mph    
Max Gust Speed -    
Visibility 10 miles    
Events      
Averages and records for this station are not official NWS values.
T = Trace of Precipitation, MM = Missing Value Source: NWS Daily Summary

Daily Weather History Graph

Daily Weather History Graph

Search for Another Location

Airport or City:

Trip Planner

Search our weather history database for the weather conditions in past years. The results will help you decide how hot, cold, wet, or windy it might be!

Date:

Astronomy

Nov. 30, 2013 Rise Set
Actual Time 7:17 AM EST 5:12 PM EST
Civil Twilight 6:49 AM EST 5:40 PM EST
Nautical Twilight 6:17 AM EST 6:12 PM EST
Astronomical Twilight 5:46 AM EST 6:43 PM EST
Moon 4:31 AM EST (11/30) 3:32 PM EST (11/30)
Length of Visible Light 10h 51m
Length of Day
9h 55m
Waning Crescent, 7% of the Moon is Illuminated
Nov 30
Waning Crescent
Dec 2
New
Dec 9
First Quarter
Dec 17
Full
Dec 25
Last Quarter

Hourly Weather History & Observations

Time (EST) Temp. Windchill Dew Point Humidity Pressure Visibility Wind Dir Wind Speed Gust Speed Precip Events Conditions
12:15 AM 31.8 °F 27.3 °F 25.2 °F 76% 30.64 in 10.0 mi North 4.6 mph - N/A   Clear
12:35 AM 32.0 °F 27.5 °F 25.0 °F 75% 30.64 in 10.0 mi North 4.6 mph - N/A   Clear
12:55 AM 31.1 °F 26.4 °F 24.8 °F 77% 30.64 in 10.0 mi North 4.6 mph - N/A   Clear
1:15 AM 30.6 °F 25.8 °F 24.4 °F 78% 30.65 in 10.0 mi North 4.6 mph - N/A   Clear
1:35 AM 30.2 °F 25.4 °F 24.4 °F 79% 30.65 in 10.0 mi North 4.6 mph - N/A   Clear
1:55 AM 31.8 °F 27.3 °F 23.9 °F 73% 30.65 in 10.0 mi North 4.6 mph - N/A   Clear
2:15 AM 31.3 °F 26.6 °F 23.9 °F 74% 30.65 in 10.0 mi North 4.6 mph - N/A   Clear
2:35 AM 30.2 °F 25.4 °F 24.1 °F 78% 30.65 in 10.0 mi North 4.6 mph - N/A   Clear
2:55 AM 29.1 °F 24.1 °F 24.1 °F 81% 30.65 in 10.0 mi North 4.6 mph - N/A   Clear
3:15 AM 29.3 °F 24.3 °F 23.9 °F 80% 30.64 in 10.0 mi North 4.6 mph - N/A   Clear
3:35 AM 29.3 °F 25.6 °F 23.9 °F 80% 30.65 in 10.0 mi North 3.5 mph - N/A   Clear
3:55 AM 29.3 °F 24.3 °F 23.7 °F 80% 30.64 in 10.0 mi North 4.6 mph - N/A   Clear
4:15 AM 28.4 °F 22.2 °F 23.7 °F 83% 30.64 in 10.0 mi North 5.8 mph - N/A   Clear
4:35 AM 28.0 °F 22.8 °F 23.5 °F 83% 30.65 in 10.0 mi NNE 4.6 mph - N/A   Clear
4:55 AM 29.7 °F 26.1 °F 23.0 °F 76% 30.65 in 10.0 mi North 3.5 mph - N/A   Clear
5:15 AM 28.9 °F 25.2 °F 23.0 °F 78% 30.65 in 10.0 mi North 3.5 mph - N/A   Clear
5:35 AM 28.2 °F 23.1 °F 23.2 °F 81% 30.66 in 10.0 mi North 4.6 mph - N/A   Clear
5:55 AM 29.1 °F 24.1 °F 22.6 °F 77% 30.65 in 10.0 mi NNE 4.6 mph - N/A   Clear
6:15 AM 29.8 °F 24.9 °F 22.1 °F 73% 30.66 in 10.0 mi North 4.6 mph - N/A   Clear
6:35 AM 28.6 °F 24.8 °F 21.9 °F 76% 30.66 in 10.0 mi North 3.5 mph - N/A   Clear
6:55 AM 27.5 °F 23.6 °F 22.3 °F 81% 30.67 in 10.0 mi North 3.5 mph - N/A   Clear
7:15 AM 28.0 °F 24.2 °F 22.6 °F 80% 30.67 in 10.0 mi North 3.5 mph - N/A   Clear
7:35 AM 27.5 °F 23.6 °F 22.6 °F 82% 30.67 in 10.0 mi North 3.5 mph - N/A   Clear
7:55 AM 28.4 °F 24.6 °F 23.2 °F 81% 30.67 in 10.0 mi North 3.5 mph - N/A   Clear
8:15 AM 29.3 °F 25.6 °F 23.7 °F 80% 30.67 in 10.0 mi North 3.5 mph - N/A   Clear
8:35 AM 30.9 °F 27.5 °F 23.7 °F 75% 30.68 in 10.0 mi North 3.5 mph - N/A   Clear
8:55 AM 32.0 °F 27.5 °F 23.2 °F 70% 30.67 in 10.0 mi NNE 4.6 mph - N/A   Clear
9:15 AM 32.9 °F 28.5 °F 23.0 °F 67% 30.67 in 10.0 mi North 4.6 mph - N/A   Clear
9:35 AM 34.3 °F 31.4 °F 23.5 °F 65% 30.68 in 10.0 mi North 3.5 mph - N/A   Clear
9:55 AM 34.9 °F 29.9 °F 22.8 °F 61% 30.67 in 10.0 mi North 5.8 mph - N/A   Clear
10:15 AM 36.1 °F 32.3 °F 21.7 °F 56% 30.67 in 10.0 mi North 4.6 mph - N/A   Clear
10:35 AM 37.9 °F 34.4 °F 22.6 °F 54% 30.66 in 10.0 mi North 4.6 mph - N/A   Clear
10:55 AM 38.3 °F 33.9 °F 21.6 °F 51% 30.66 in 10.0 mi NW 5.8 mph - N/A   Clear
11:15 AM 39.7 °F 37.6 °F 21.2 °F 48% 30.64 in 10.0 mi North 3.5 mph - N/A   Clear
11:35 AM 40.3 °F 37.1 °F 22.1 °F 48% 30.63 in 10.0 mi East 4.6 mph - N/A   Clear
11:55 AM 41.0 °F 36.4 °F 23.0 °F 49% 30.61 in 10.0 mi NNW 6.9 mph - N/A   Clear
12:15 PM 41.7 °F 39.8 °F 21.9 °F 45% 30.59 in 10.0 mi West 3.5 mph - N/A   Clear
12:35 PM 42.1 °F 38.4 °F 22.3 °F 45% 30.58 in 10.0 mi NNW 5.8 mph - N/A   Clear
12:55 PM 42.3 °F 39.4 °F 22.1 °F 45% 30.56 in 10.0 mi North 4.6 mph - N/A   Clear
1:15 PM 42.4 °F 39.6 °F 21.7 °F 44% 30.55 in 10.0 mi NW 4.6 mph - N/A   Clear
1:35 PM 43.0 °F 41.3 °F 22.5 °F 44% 30.53 in 10.0 mi NW 3.5 mph - N/A   Clear
1:55 PM 44.6 °F 41.4 °F 22.6 °F 42% 30.52 in 10.0 mi WNW 5.8 mph - N/A   Clear
2:15 PM 44.8 °F 43.3 °F 21.7 °F 40% 30.51 in 10.0 mi NNW 3.5 mph - N/A   Clear
2:35 PM 44.6 °F 42.2 °F 22.5 °F 42% 30.50 in 10.0 mi NNW 4.6 mph - N/A   Clear
2:55 PM 45.7 °F 44.4 °F 22.6 °F 40% 30.49 in 10.0 mi WNW 3.5 mph - N/A   Clear
3:15 PM 44.8 °F - 20.7 °F 38% 30.48 in 10.0 mi Calm Calm - N/A   Clear
3:35 PM 45.0 °F 43.5 °F 21.2 °F 39% 30.48 in 10.0 mi SSW 3.5 mph - N/A   Clear
3:55 PM 45.1 °F 43.7 °F 21.2 °F 39% 30.47 in 10.0 mi South 3.5 mph - N/A   Clear
4:15 PM 44.6 °F - 21.9 °F 41% 30.47 in 10.0 mi Calm Calm - N/A   Clear
4:35 PM 42.8 °F 41.1 °F 22.5 °F 45% 30.46 in 10.0 mi ESE 3.5 mph - N/A   Clear
4:55 PM 41.2 °F - 24.3 °F 51% 30.46 in 10.0 mi Calm Calm - N/A   Clear
5:15 PM 34.5 °F - 28.0 °F 77% 30.45 in 10.0 mi Calm Calm - N/A   Clear
5:35 PM 32.2 °F - 27.0 °F 81% 30.46 in 10.0 mi Calm Calm - N/A   Clear
5:55 PM 30.4 °F - 26.2 °F 85% 30.45 in 10.0 mi Calm Calm - N/A   Clear
6:15 PM 29.3 °F - 24.8 °F 83% 30.45 in 10.0 mi Calm Calm - N/A   Clear
6:35 PM 30.2 °F - 23.5 °F 76% 30.46 in 10.0 mi Calm Calm - N/A   Clear
6:55 PM 29.1 °F - 24.1 °F 81% 30.45 in 10.0 mi Calm Calm - N/A   Clear
7:15 PM 28.4 °F - 24.1 °F 84% 30.45 in 10.0 mi Calm Calm - N/A   Clear
7:35 PM 28.2 °F - 23.9 °F 84% 30.46 in 10.0 mi Calm Calm - N/A   Clear
7:55 PM 28.0 °F - 23.4 °F 83% 30.45 in 10.0 mi Calm Calm - N/A   Clear
8:15 PM 27.3 °F - 23.5 °F 86% 30.45 in 10.0 mi Calm Calm - N/A   Clear
8:35 PM 27.7 °F 22.4 °F 23.9 °F 86% 30.45 in 10.0 mi North 4.6 mph - N/A   Clear
8:55 PM 30.2 °F - 24.8 °F 80% 30.44 in 10.0 mi Calm Calm - N/A   Clear
9:15 PM 29.8 °F - 24.6 °F 81% 30.44 in 10.0 mi Calm Calm - N/A   Clear
9:35 PM 29.8 °F - 24.6 °F 81% 30.44 in 10.0 mi Calm Calm - N/A   Clear
9:55 PM 29.7 °F 26.1 °F 24.3 °F 80% 30.44 in 10.0 mi North 3.5 mph - N/A   Clear
10:15 PM 29.5 °F 25.9 °F 24.4 °F 81% 30.43 in 10.0 mi North 3.5 mph - N/A   Clear
10:35 PM 29.5 °F 25.9 °F 24.3 °F 81% 30.42 in 10.0 mi North 3.5 mph - N/A   Clear
10:55 PM 28.4 °F - 24.6 °F 86% 30.42 in 10.0 mi Calm Calm - N/A   Clear
11:15 PM 26.4 °F - 23.9 °F 90% 30.41 in 10.0 mi Calm Calm - N/A   Clear
11:35 PM 25.3 °F - 23.7 °F 94% 30.41 in 10.0 mi Calm Calm - N/A   Clear
11:55 PM 26.1 °F - 24.1 °F 92% 30.41 in 10.0 mi Calm Calm - N/A   Clear